Starlink 30303

operational
NORAD ID: 57677 Int'l Des: 2023-124 Owner: SPXS Country: US Constellation: starlink
LEOCIRCULAR

Starlink 30303について

説明を読み込み中...

リアルタイム位置

3D地球を読み込み中...

次回通過

高度履歴

Altitude vs Time

uPlot chart will show altitude changes over time

軌道要素

1 57677U 23124Q 25306.07078762 .00001345 00000-0 57550-4 0 9996
2 57677 53.1598 79.2561 0000958 74.8417 285.2690 15.30192026124039
Epoch: Nov 2, 2025 • Age: 44 hours

現在のステータス

高度 491.5 km
速度 7.62 km/s
衛星直下点 -46.26°S, 16.64°E
打ち上げ日 Aug 22, 2023
運用期間 2.2 years
タイプ internet

技術仕様

分類 Payload
質量 730.00 kg
乾燥質量 700.00 kg
総質量 730.00 kg
長さ 0.30 m
直径 4.10 m
スパン 29.00 m
形状 Box + pan
製造者 SPXS
バスタイプ Starlink V2M
フェーズステータス In Orbit
所有者/国 SPXS/US

大規模コンステレーション

Loading constellations...